Regional Weather Roundup
Issued by NWS

Home | Current Version | Previous Version | Text Only | Print | Product List | Glossary On
Versions: 1 2 3 4 5 6 7 8 9 10 11 12 13 14 15 16 17 18 19 20 21 22 23 24 25 26 27 28 29 30 31 32 33 34 35 36 37 38 39 40 41 42 43 44 45 46 47 48 49 50
000
ASUS43 KOAX 051310
RWRNE

WEATHER ROUNDUP FOR NEBRASKA
NATIONAL WEATHER SERVICE OMAHA NE
800 AM CDT TUE MAY 05 2015

NOTES: SATELLITE DATA IS BEING USED TO AUGMENT CLOUD COVER ABOVE
       12000 FEET.
       "FAIR" INDICATES FEW OR NO CLOUDS BELOW 12,000 FEET WITH NO
       SIGNIFICANT WEATHER AND/OR OBSTRUCTIONS TO VISIBILITY.

  * THESE STATIONS DO NOT REPORT WEATHER SUCH AS RAIN...SNOW OR FOG.

NEZ001>004-019>022-054>056-051400-
NEBRASKA PANHANDLE

CITY           SKY/WX    TMP DP  RH WIND       PRES   REMARKS
SCOTTSBLUFF    CLOUDY    48  45  89 SE9       30.01S FOG
ALLIANCE       CLOUDY    48  46  93 S9        30.02S FOG
CHADRON        SUNNY     44  40  85 N3        30.00S
KIMBALL        FOG       45  44  99 SE6       30.00S VSB<1/4
SIDNEY         CLOUDY    46  45  96 S3        30.03S FOG
$$

NEZ057>060-069>072-079>082-051400-
SOUTHWEST NEBRASKA

CITY           SKY/WX    TMP DP  RH WIND       PRES   REMARKS
NORTH PLATTE   FOG       52  51  97 E6        30.04R VSB 3/4
IMPERIAL       FOG       50  49  96 N6        30.03R VSB 3/4
LEXINGTON      FOG       55  54  97 E5        30.04S VSB 1/4
MCCOOK         FOG       54  53  97 NE8       30.01F VSB 1/4
OGALLALA       FOG       50  49  98 CALM      30.03F VSB 3/4
$$

NEZ005>010-023>029-035>040-094-051400-
NORTH CENTRAL NEBRASKA

CITY           SKY/WX    TMP DP  RH WIND       PRES   REMARKS
VALENTINE      CLOUDY    53  46  77 E8        30.05R
AINSWORTH      CLOUDY    53  52  97 E7        30.05S FOG
BROKEN BOW     FOG       54  53  97 NE6       30.03S VSB 1/4
O`NEILL        CLOUDY    53  52  95 E5        30.08R FOG
ORD            CLOUDY    54  53  97 E7        30.04R FOG
THEDFORD       CLOUDY    53  52  96 E6        30.05S FOG
$$

NEZ041-046>049-061>064-073>077-083>087-051400-
SOUTH CENTRAL NEBRASKA

CITY           SKY/WX    TMP DP  RH WIND       PRES   REMARKS
GRAND ISLAND   FOG       56  56 100 E5        30.06R VSB 1/4
AURORA         FOG       57  57 100 E5        30.06R VSB 1/4
HASTINGS       CLOUDY    58  58 100 E5        30.05R FOG
HEBRON         PTSUNNY   61  58  89 SE8       30.05R
HOLDREGE       CLOUDY    57  56  97 CALM      30.04R FOG
KEARNEY *      CLOUDY    57  55  94 E6        30.05S VSB 1/4
YORK           FOG       57  57 100 E7        30.06S VSB<1/4
$$

NEZ011>018-030>034-042>045-051400-
NORTHEAST NEBRASKA

CITY           SKY/WX    TMP DP  RH WIND       PRES   REMARKS
NORFOLK        CLOUDY    56  55  97 E6        30.06R FOG
ALBION         FOG       55  53  94 E6        30.06R VSB 1/2
BLAIR          CLOUDY    59  57  95 SE3       30.08R FOG
COLUMBUS *     CLOUDY    55  52  88 E10       30.09R VSB 1/4
FREMONT        CLOUDY    59  58  96 SE5       30.08R FOG
TEKAMAH        CLOUDY    58  57  97 E5        30.07S FOG
WAYNE          CLOUDY    54  53  95 NE9       30.08S FOG
$$

NEZ050>053-065>068-078-088>093-051400-
SOUTHEAST NEBRASKA

CITY           SKY/WX    TMP DP  RH WIND       PRES   REMARKS
LINCOLN        CLOUDY    61  59  93 E6        30.07R
OMAHA EPPLEY   CLOUDY    61  59  93 SE6       30.08R
BEATRICE       MOSUNNY   61  58  92 CALM      30.06R
FALLS CITY     CLOUDY    60  58  92 E5        30.08R
NEBRASKA CITY  CLOUDY    60  60 100 SE5       30.09R
PLATTSMOUTH    CLOUDY    60  59  94 SE5       30.09R
$$

NEZ044-045-051>053-067-051400-
OMAHA AREA

CITY           SKY/WX    TMP DP  RH WIND       PRES   REMARKS
OMAHA EPPLEY   CLOUDY    61  59  93 SE6       30.08R
BLAIR          CLOUDY    59  57  95 SE3       30.08R FOG
FREMONT        CLOUDY    59  58  96 SE5       30.08R FOG
MILLARD        CLOUDY    62  59  93 SE5       30.07S
OFFUTT AFB     CLOUDY    62  60  93 SE7       30.08R
PLATTSMOUTH    CLOUDY    60  59  94 SE5       30.09R
$$



USA.gov is the U.S. government's official web portal to all federal, state and local government web resources and services.